AAL1260 KMIA-KDFW

Flight info

Callsign AAL1260
Flight time 3h 3m
Altitude 30000
Route GLADZ4 BAGGS REMIS Y280 NAITE/N0474F320 Y280 REDFN Q105 HRV PNUTS BEREE3
Aircraft B738/M-SDE2E3FGHIRWXY/LB1

Departure

Time 2026-05-03 20:50
Airport Miami International Airport (KMIA)

Arrival

Time 2026-05-03 23:53
Airport Dallas Fort Worth International Airport (KDFW)
Time Latitude Longitude Altitude Speed Heading
2026-05-03 20:29 25.79824 -80.28321 14 ft 0 kts 177°
2026-05-03 20:39 25.79831 -80.28321 14 ft 3 kts 177°
2026-05-03 20:40 25.79850 -80.28322 17 ft 3 kts 177°
2026-05-03 20:40 25.79860 -80.28323 16 ft 3 kts 177°
2026-05-03 20:40 25.79880 -80.28324 17 ft 3 kts 177°
2026-05-03 20:40 25.79888 -80.28324 16 ft 8 kts 177°
2026-05-03 20:44 25.79887 -80.28325 16 ft 1 kts 184°
2026-05-03 20:45 25.79887 -80.28345 16 ft 5 kts 317°
2026-05-03 20:45 25.79943 -80.28333 14 ft 13 kts 18°
2026-05-03 20:45 25.80032 -80.28362 14 ft 17 kts 286°
2026-05-03 20:45 25.80029 -80.28491 14 ft 16 kts 268°
2026-05-03 20:46 25.80026 -80.28607 15 ft 14 kts 268°
2026-05-03 20:46 25.80020 -80.28717 15 ft 15 kts 266°
2026-05-03 20:46 25.80016 -80.28837 15 ft 17 kts 268°
2026-05-03 20:46 25.80012 -80.28987 15 ft 22 kts 270°
2026-05-03 20:47 25.80001 -80.29163 15 ft 23 kts 269°
2026-05-03 20:47 25.79995 -80.29338 14 ft 22 kts 269°
2026-05-03 20:47 25.79987 -80.29506 13 ft 21 kts 266°
2026-05-03 20:47 25.79983 -80.29663 13 ft 20 kts 268°
2026-05-03 20:48 25.79975 -80.29831 13 ft 23 kts 269°
2026-05-03 20:48 25.79987 -80.30002 12 ft 21 kts 284°
2026-05-03 20:48 25.80049 -80.30125 13 ft 14 kts 347°
2026-05-03 20:48 25.80079 -80.30079 13 ft 10 kts 97°
2026-05-03 20:49 25.80084 -80.29844 12 ft 58 kts 88°
2026-05-03 20:49 25.80111 -80.29187 16 ft 110 kts 88°
2026-05-03 20:49 25.80153 -80.28167 12 ft 152 kts 87°
2026-05-03 20:49 25.80207 -80.26868 88 ft 180 kts 86°
2026-05-03 20:50 25.80251 -80.25494 617 ft 177 kts 87°
2026-05-03 20:50 25.80329 -80.24093 983 ft 188 kts 84°
2026-05-03 20:50 25.80473 -80.22627 1413 ft 193 kts 83°
2026-05-03 20:50 25.80643 -80.21117 1845 ft 203 kts 82°
2026-05-03 20:51 25.80874 -80.19549 2325 ft 206 kts 75°
2026-05-03 20:51 25.81240 -80.17977 2637 ft 220 kts 86°
2026-05-03 20:51 25.81332 -80.16231 2775 ft 235 kts 76°
2026-05-03 20:51 25.82208 -80.14721 2888 ft 244 kts 34°
2026-05-03 20:52 25.83797 -80.14159 3135 ft 244 kts 354°
2026-05-03 20:52 25.85440 -80.14605 3470 ft 245 kts 341°
2026-05-03 20:52 25.87159 -80.15043 3584 ft 261 kts 349°
2026-05-03 20:52 25.89009 -80.15212 3846 ft 271 kts 355°
2026-05-03 20:53 25.90844 -80.15684 4346 ft 270 kts 330°
2026-05-03 20:53 25.92518 -80.16605 5091 ft 270 kts 334°
2026-05-03 20:53 25.94276 -80.17355 5743 ft 274 kts 336°
2026-05-03 20:53 25.96102 -80.18040 6311 ft 278 kts 337°
2026-05-03 20:54 25.97785 -80.18971 6828 ft 263 kts 312°
2026-05-03 20:54 25.99339 -80.22549 7022 ft 261 kts 276°
2026-05-03 20:54 25.99561 -80.24570 6998 ft 263 kts 275°
2026-05-03 20:55 25.99766 -80.26577 7016 ft 260 kts 274°
2026-05-03 20:55 25.99855 -80.28569 7220 ft 264 kts 269°
2026-05-03 20:55 25.99836 -80.30609 7838 ft 265 kts 268°
2026-05-03 20:55 25.99802 -80.32665 8505 ft 266 kts 268°
2026-05-03 20:56 25.99781 -80.34718 9202 ft 266 kts 269°
2026-05-03 20:56 25.99772 -80.36785 9842 ft 268 kts 269°
2026-05-03 20:56 25.99767 -80.38872 10369 ft 271 kts 269°
2026-05-03 20:56 25.99766 -80.40977 10955 ft 272 kts 268°
2026-05-03 20:57 25.99394 -80.43032 11479 ft 277 kts 248°
2026-05-03 20:57 25.98394 -80.44941 11631 ft 297 kts 236°
2026-05-03 20:57 25.97093 -80.46813 11784 ft 314 kts 233°
2026-05-03 20:57 25.95696 -80.48745 12065 ft 327 kts 233°
2026-05-03 20:58 25.94244 -80.50727 12674 ft 330 kts 233°
2026-05-03 20:58 25.92808 -80.52719 13336 ft 332 kts 233°
2026-05-03 20:58 25.91367 -80.54736 13893 ft 335 kts 233°
2026-05-03 20:58 25.89922 -80.56767 14430 ft 336 kts 233°
2026-05-03 20:59 25.88471 -80.58812 14989 ft 338 kts 233°
2026-05-03 20:59 25.87018 -80.60863 15546 ft 339 kts 234°
2026-05-03 20:59 25.85554 -80.62931 16087 ft 342 kts 234°
2026-05-03 20:59 25.84083 -80.65010 16664 ft 343 kts 234°
2026-05-03 21:00 25.83103 -80.66395 17009 ft 345 kts 234°
2026-05-03 21:00 25.82119 -80.67783 17369 ft 346 kts 234°
2026-05-03 21:00 25.80123 -80.70598 18059 ft 349 kts 234°
2026-05-03 21:00 25.78680 -80.72767 18520 ft 350 kts 242°
2026-05-03 21:01 25.77768 -80.75266 18968 ft 350 kts 253°
2026-05-03 21:01 25.77089 -80.77865 19426 ft 351 kts 254°
2026-05-03 21:01 25.76412 -80.80479 19876 ft 353 kts 253°
2026-05-03 21:01 25.75718 -80.83099 20316 ft 355 kts 253°
2026-05-03 21:02 25.75009 -80.85726 20755 ft 357 kts 253°
2026-05-03 21:02 25.74289 -80.88364 21188 ft 358 kts 253°
2026-05-03 21:02 25.73563 -80.91022 21608 ft 360 kts 253°
2026-05-03 21:02 25.72836 -80.93680 22047 ft 361 kts 253°
2026-05-03 21:03 25.72104 -80.96354 22473 ft 363 kts 253°
2026-05-03 21:03 25.71369 -80.99040 22882 ft 365 kts 252°
2026-05-03 21:03 25.70630 -81.01744 23324 ft 368 kts 253°
2026-05-03 21:03 25.69898 -81.04424 23731 ft 369 kts 253°
2026-05-03 21:04 25.69156 -81.07147 24058 ft 370 kts 253°
2026-05-03 21:04 25.68408 -81.09879 24382 ft 371 kts 253°
2026-05-03 21:04 25.67651 -81.12624 24655 ft 374 kts 253°
2026-05-03 21:04 25.66886 -81.15400 24868 ft 378 kts 253°
2026-05-03 21:05 25.66119 -81.18187 25193 ft 378 kts 253°
2026-05-03 21:05 25.65389 -81.20984 25543 ft 378 kts 258°
2026-05-03 21:05 25.65279 -81.23906 25842 ft 383 kts 273°
2026-05-03 21:05 25.65766 -81.26822 26144 ft 389 kts 284°
2026-05-03 21:06 25.66829 -81.29610 26471 ft 394 kts 291°
2026-05-03 21:06 25.68069 -81.32315 26919 ft 392 kts 292°
2026-05-03 21:06 25.69335 -81.34988 27359 ft 390 kts 292°
2026-05-03 21:06 25.70589 -81.37642 27836 ft 387 kts 291°
2026-05-03 21:07 25.71823 -81.40289 28302 ft 384 kts 291°
2026-05-03 21:07 25.73034 -81.42924 28702 ft 383 kts 291°
2026-05-03 21:07 25.74235 -81.45556 29074 ft 382 kts 290°
2026-05-03 21:07 25.75432 -81.48184 29553 ft 380 kts 290°
2026-05-03 21:08 25.76619 -81.50794 30008 ft 380 kts 290°
2026-05-03 21:08 25.77813 -81.53428 29957 ft 382 kts 290°
2026-05-03 21:08 25.80169 -81.58622 30025 ft 378 kts 290°
2026-05-03 21:09 25.82531 -81.63841 30043 ft 379 kts 290°
2026-05-03 21:09 25.84899 -81.69079 30027 ft 380 kts 291°
2026-05-03 21:10 25.87286 -81.74367 30054 ft 389 kts 291°
2026-05-03 21:10 25.90326 -81.79484 30056 ft 416 kts 310°
2026-05-03 21:11 25.94977 -81.83512 30031 ft 425 kts 316°
2026-05-03 21:11 25.99743 -81.87408 30030 ft 425 kts 316°
2026-05-03 21:12 26.04451 -81.91302 30045 ft 424 kts 315°
2026-05-03 21:12 26.09158 -81.95245 30034 ft 423 kts 315°
2026-05-03 21:13 26.13843 -81.99192 30031 ft 422 kts 315°
2026-05-03 21:13 26.18517 -82.03138 30034 ft 421 kts 315°
2026-05-03 21:14 26.23190 -82.07086 30036 ft 422 kts 315°
2026-05-03 21:14 26.27866 -82.11041 30030 ft 422 kts 315°
2026-05-03 21:15 26.32542 -82.14998 30040 ft 422 kts 315°
2026-05-03 21:15 26.37215 -82.18957 30061 ft 423 kts 315°
2026-05-03 21:16 26.41900 -82.22931 30047 ft 423 kts 315°
2026-05-03 21:16 26.46545 -82.26873 30050 ft 422 kts 315°
2026-05-03 21:17 26.50461 -82.30201 30036 ft 421 kts 315°
2026-05-03 21:17 26.55871 -82.34803 30047 ft 420 kts 315°
2026-05-03 21:18 26.60524 -82.38766 30039 ft 420 kts 315°
2026-05-03 21:18 26.65166 -82.42723 30050 ft 419 kts 315°
2026-05-03 21:19 26.69812 -82.46689 30048 ft 420 kts 314°
2026-05-03 21:19 26.74457 -82.50658 30047 ft 420 kts 314°
2026-05-03 21:20 26.79110 -82.54638 30052 ft 420 kts 314°
2026-05-03 21:20 26.83760 -82.58619 30047 ft 421 kts 314°
2026-05-03 21:21 26.88435 -82.62628 30041 ft 424 kts 314°
2026-05-03 21:21 26.93116 -82.66643 30055 ft 423 kts 314°
2026-05-03 21:22 26.97752 -82.70624 30053 ft 422 kts 314°
2026-05-03 21:22 27.02412 -82.74631 30054 ft 422 kts 314°
2026-05-03 21:23 27.07071 -82.78644 30074 ft 422 kts 314°
2026-05-03 21:23 27.11665 -82.82634 30046 ft 410 kts 310°
2026-05-03 21:24 27.13483 -82.85007 30068 ft 396 kts 295°
2026-05-03 21:24 27.14686 -82.87748 30057 ft 389 kts 285°
2026-05-03 21:24 27.16521 -82.93516 30060 ft 393 kts 284°
2026-05-03 21:25 27.18315 -82.99305 30046 ft 390 kts 284°
2026-05-03 21:25 27.20125 -83.05064 30049 ft 391 kts 284°
2026-05-03 21:26 27.21950 -83.10821 30049 ft 392 kts 284°
2026-05-03 21:26 27.23784 -83.16584 30071 ft 390 kts 285°
2026-05-03 21:27 27.25596 -83.22278 30054 ft 385 kts 285°
2026-05-03 21:27 27.27388 -83.27921 30050 ft 382 kts 285°
2026-05-03 21:28 27.29156 -83.33501 30062 ft 381 kts 285°
2026-05-03 21:28 27.30937 -83.39136 30059 ft 382 kts 285°
2026-05-03 21:29 27.32727 -83.44802 30085 ft 385 kts 284°
2026-05-03 21:29 27.34520 -83.50490 30069 ft 386 kts 284°
2026-05-03 21:30 27.36317 -83.56196 30073 ft 385 kts 284°
2026-05-03 21:30 27.38078 -83.61787 30079 ft 381 kts 284°
2026-05-03 21:31 27.39844 -83.67419 30073 ft 381 kts 284°
2026-05-03 21:31 27.41609 -83.73052 30064 ft 382 kts 284°
2026-05-03 21:32 27.43373 -83.78692 30080 ft 382 kts 284°
2026-05-03 21:32 27.45137 -83.84337 30082 ft 382 kts 284°
2026-05-03 21:33 27.46898 -83.89983 30076 ft 381 kts 284°
2026-05-03 21:33 27.48649 -83.95605 30078 ft 380 kts 284°
2026-05-03 21:34 27.50391 -84.01207 30074 ft 378 kts 284°
2026-05-03 21:34 27.52110 -84.06743 30086 ft 376 kts 284°
2026-05-03 21:35 27.53829 -84.12293 30077 ft 375 kts 284°
2026-05-03 21:35 27.55545 -84.17839 30075 ft 374 kts 284°
2026-05-03 21:36 27.57255 -84.23376 30085 ft 374 kts 284°
2026-05-03 21:36 27.58972 -84.28949 30102 ft 378 kts 284°
2026-05-03 21:37 27.60703 -84.34574 30092 ft 380 kts 284°
2026-05-03 21:37 27.62432 -84.40194 30086 ft 378 kts 284°
2026-05-03 21:38 27.64135 -84.45733 30086 ft 371 kts 284°
2026-05-03 21:38 27.65823 -84.51242 30093 ft 372 kts 284°
2026-05-03 21:39 27.67510 -84.56763 30093 ft 372 kts 284°
2026-05-03 21:39 27.69187 -84.62256 30096 ft 373 kts 284°
2026-05-03 21:40 27.70879 -84.67804 30119 ft 373 kts 284°
2026-05-03 21:40 27.72569 -84.73355 30104 ft 373 kts 284°
2026-05-03 21:41 27.74254 -84.78896 30097 ft 373 kts 284°
2026-05-03 21:41 27.75933 -84.84428 30099 ft 372 kts 284°
2026-05-03 21:42 27.77603 -84.89940 30102 ft 371 kts 284°
2026-05-03 21:42 27.79260 -84.95419 30104 ft 370 kts 284°
2026-05-03 21:43 27.80922 -85.00922 30107 ft 370 kts 284°
2026-05-03 21:43 27.82581 -85.06424 30111 ft 369 kts 284°
2026-05-03 21:44 27.84230 -85.11902 30102 ft 369 kts 284°
2026-05-03 21:44 27.85605 -85.16478 30106 ft 369 kts 284°
2026-05-03 21:45 27.87253 -85.21970 30109 ft 369 kts 284°
2026-05-03 21:45 27.89169 -85.28345 30109 ft 369 kts 284°
2026-05-03 21:46 27.90565 -85.32932 30110 ft 368 kts 284°
2026-05-03 21:46 27.92222 -85.38379 30111 ft 368 kts 284°
2026-05-03 21:47 27.93882 -85.43856 30116 ft 368 kts 284°
2026-05-03 21:47 27.95541 -85.49342 30111 ft 369 kts 284°
2026-05-03 21:48 27.97199 -85.54830 30111 ft 368 kts 284°
2026-05-03 21:48 27.98853 -85.60317 30117 ft 368 kts 284°
2026-05-03 21:49 28.00504 -85.65803 30124 ft 369 kts 283°
2026-05-03 21:49 28.02158 -85.71313 30118 ft 370 kts 283°
2026-05-03 21:50 28.03815 -85.76837 30121 ft 371 kts 283°
2026-05-03 21:50 28.05472 -85.82368 30118 ft 371 kts 283°
2026-05-03 21:51 28.07131 -85.87913 30115 ft 372 kts 283°
2026-05-03 21:51 28.08787 -85.93459 30115 ft 372 kts 283°
2026-05-03 21:52 28.10438 -85.99001 30122 ft 372 kts 283°
2026-05-03 21:52 28.12080 -86.04519 30118 ft 372 kts 283°
2026-05-03 21:53 28.13730 -86.10071 30120 ft 371 kts 283°
2026-05-03 21:53 28.15375 -86.15620 30122 ft 371 kts 283°
2026-05-03 21:54 28.17016 -86.21163 30132 ft 371 kts 283°
2026-05-03 21:54 28.18654 -86.26707 30120 ft 370 kts 283°
2026-05-03 21:55 28.20273 -86.32191 30123 ft 370 kts 283°
2026-05-03 21:55 28.21900 -86.37716 30123 ft 369 kts 283°
2026-05-03 21:56 28.23526 -86.43246 30123 ft 369 kts 283°
2026-05-03 21:56 28.25146 -86.48762 30121 ft 369 kts 283°
2026-05-03 21:57 28.26752 -86.54243 30129 ft 368 kts 283°
2026-05-03 21:57 28.28366 -86.59759 30133 ft 368 kts 283°
2026-05-03 21:58 28.29972 -86.65253 30127 ft 368 kts 284°
2026-05-03 21:58 28.31587 -86.70772 30127 ft 368 kts 283°
2026-05-03 21:59 28.33195 -86.76295 30169 ft 368 kts 283°
2026-05-03 21:59 28.34817 -86.81831 30138 ft 370 kts 283°
2026-05-03 22:00 28.36443 -86.87384 30132 ft 371 kts 283°
2026-05-03 22:00 28.38065 -86.92941 30130 ft 371 kts 283°
2026-05-03 22:01 28.39688 -86.98512 30135 ft 371 kts 284°
2026-05-03 22:01 28.41295 -87.04037 30128 ft 370 kts 284°
2026-05-03 22:02 28.42906 -87.09586 30130 ft 369 kts 284°
2026-05-03 22:03 28.46197 -87.20949 30131 ft 369 kts 284°
2026-05-03 22:03 28.47797 -87.26494 30132 ft 369 kts 283°
2026-05-03 22:04 28.49386 -87.32007 30131 ft 369 kts 283°
2026-05-03 22:04 28.50984 -87.37554 30132 ft 370 kts 284°
2026-05-03 22:05 28.52583 -87.43125 30133 ft 371 kts 284°
2026-05-03 22:05 28.54182 -87.48699 30129 ft 370 kts 284°
2026-05-03 22:06 28.55771 -87.54249 30129 ft 369 kts 284°
2026-05-03 22:06 28.57355 -87.59792 30134 ft 368 kts 284°
2026-05-03 22:07 28.58932 -87.65322 30136 ft 368 kts 284°
2026-05-03 22:07 28.60509 -87.70859 30136 ft 368 kts 284°
2026-05-03 22:08 28.62086 -87.76406 30133 ft 368 kts 284°
2026-05-03 22:08 28.63651 -87.81920 30137 ft 368 kts 284°
2026-05-03 22:09 28.65226 -87.87481 30175 ft 370 kts 284°
2026-05-03 22:10 28.67602 -87.95885 30140 ft 372 kts 284°
2026-05-03 22:10 28.69189 -88.01511 30140 ft 373 kts 284°
2026-05-03 22:11 28.70766 -88.07108 30146 ft 373 kts 284°
2026-05-03 22:11 28.72349 -88.12747 30134 ft 374 kts 284°
2026-05-03 22:12 28.73929 -88.18389 30140 ft 373 kts 284°
2026-05-03 22:12 28.75502 -88.24021 30152 ft 373 kts 284°
2026-05-03 22:13 28.77073 -88.29652 30136 ft 372 kts 284°
2026-05-03 22:13 28.78638 -88.35271 30139 ft 372 kts 284°
2026-05-03 22:14 28.80189 -88.40851 30139 ft 371 kts 284°
2026-05-03 22:14 28.81743 -88.46454 30141 ft 371 kts 284°
2026-05-03 22:15 28.83295 -88.52057 30150 ft 370 kts 285°
2026-05-03 22:15 28.84843 -88.57656 30145 ft 370 kts 285°
2026-05-03 22:16 28.86387 -88.63250 30150 ft 369 kts 285°
2026-05-03 22:16 28.88129 -88.68766 30145 ft 372 kts 292°
2026-05-03 22:17 28.90934 -88.73776 30149 ft 379 kts 304°
2026-05-03 22:17 28.94383 -88.78342 30161 ft 380 kts 305°
2026-05-03 22:18 28.97856 -88.82905 30153 ft 381 kts 305°
2026-05-03 22:18 29.01301 -88.87456 30159 ft 380 kts 305°
2026-05-03 22:19 29.04747 -88.92034 30152 ft 379 kts 305°
2026-05-03 22:19 29.07603 -88.95838 30151 ft 379 kts 305°
2026-05-03 22:20 29.11027 -89.00404 30152 ft 377 kts 305°
2026-05-03 22:20 29.14445 -89.04966 30156 ft 378 kts 305°
2026-05-03 22:21 29.17866 -89.09539 30155 ft 378 kts 305°
2026-05-03 22:21 29.21274 -89.14100 30159 ft 379 kts 305°
2026-05-03 22:22 29.24699 -89.18687 30200 ft 379 kts 305°
2026-05-03 22:22 29.28107 -89.23255 30165 ft 376 kts 305°
2026-05-03 22:23 29.31499 -89.27806 30158 ft 375 kts 305°
2026-05-03 22:23 29.34878 -89.32348 30160 ft 373 kts 305°
2026-05-03 22:24 29.38244 -89.36878 30166 ft 374 kts 305°
2026-05-03 22:24 29.41609 -89.41413 30164 ft 376 kts 305°
2026-05-03 22:25 29.44995 -89.45978 30164 ft 375 kts 305°
2026-05-03 22:25 29.48378 -89.50544 30160 ft 375 kts 305°
2026-05-03 22:26 29.51758 -89.55112 30161 ft 375 kts 305°
2026-05-03 22:26 29.55131 -89.59676 30182 ft 375 kts 305°
2026-05-03 22:27 29.58515 -89.64260 30164 ft 375 kts 305°
2026-05-03 22:27 29.61886 -89.68832 30160 ft 375 kts 305°
2026-05-03 22:28 29.65226 -89.73367 30162 ft 374 kts 305°
2026-05-03 22:28 29.68591 -89.77936 30164 ft 373 kts 306°
2026-05-03 22:29 29.71950 -89.82500 30162 ft 373 kts 305°
2026-05-03 22:29 29.75305 -89.87065 30160 ft 373 kts 305°
2026-05-03 22:30 29.78658 -89.91634 30162 ft 373 kts 305°
2026-05-03 22:30 29.82015 -89.96213 30170 ft 374 kts 305°
2026-05-03 22:31 29.85293 -90.00834 30156 ft 374 kts 301°
2026-05-03 22:31 29.87986 -90.05944 30153 ft 372 kts 298°
2026-05-03 22:32 29.90620 -90.11065 30160 ft 371 kts 298°
2026-05-03 22:32 29.93254 -90.16184 30157 ft 370 kts 297°
2026-05-03 22:33 29.95885 -90.21290 30154 ft 370 kts 297°
2026-05-03 22:33 29.98519 -90.26394 30158 ft 370 kts 297°
2026-05-03 22:34 30.01155 -90.31502 30158 ft 370 kts 297°
2026-05-03 22:34 30.03788 -90.36611 30158 ft 371 kts 298°
2026-05-03 22:35 30.06424 -90.41732 30152 ft 370 kts 298°
2026-05-03 22:35 30.09032 -90.46799 30156 ft 369 kts 298°
2026-05-03 22:36 30.11654 -90.51898 30204 ft 370 kts 298°
2026-05-03 22:36 30.14290 -90.57057 30169 ft 374 kts 298°
2026-05-03 22:37 30.16942 -90.62245 30149 ft 373 kts 298°
2026-05-03 22:37 30.19573 -90.67390 30159 ft 371 kts 298°
2026-05-03 22:38 30.22191 -90.72517 30163 ft 370 kts 298°
2026-05-03 22:38 30.24802 -90.77636 30153 ft 369 kts 299°
2026-05-03 22:39 30.27410 -90.82756 30164 ft 369 kts 299°
2026-05-03 22:39 30.29994 -90.87837 30166 ft 369 kts 299°
2026-05-03 22:40 30.32596 -90.92960 30167 ft 369 kts 299°
2026-05-03 22:40 30.35206 -90.98105 30163 ft 371 kts 299°
2026-05-03 22:41 30.37820 -91.03266 30156 ft 372 kts 299°
2026-05-03 22:41 30.40443 -91.08446 30171 ft 374 kts 300°
2026-05-03 22:42 30.43075 -91.13651 30160 ft 375 kts 299°
2026-05-03 22:42 30.45710 -91.18879 30151 ft 375 kts 300°
2026-05-03 22:43 30.48341 -91.24100 30155 ft 375 kts 300°
2026-05-03 22:43 30.50968 -91.29320 30157 ft 374 kts 300°
2026-05-03 22:44 30.53571 -91.34498 30157 ft 374 kts 300°
2026-05-03 22:44 30.56186 -91.39707 30144 ft 373 kts 300°
2026-05-03 22:45 30.58793 -91.44908 30138 ft 372 kts 300°
2026-05-03 22:45 30.61394 -91.50103 30140 ft 372 kts 300°
2026-05-03 22:46 30.63368 -91.54051 30118 ft 371 kts 300°
2026-05-03 22:46 30.65829 -91.58978 30133 ft 370 kts 300°
2026-05-03 22:47 30.68136 -91.63602 30142 ft 369 kts 300°
2026-05-03 22:47 30.70090 -91.67524 30145 ft 370 kts 300°
2026-05-03 22:48 30.72653 -91.72673 30141 ft 371 kts 300°
2026-05-03 22:48 30.75232 -91.77862 30145 ft 370 kts 300°
2026-05-03 22:49 30.77809 -91.83053 30151 ft 370 kts 300°
2026-05-03 22:49 30.80381 -91.88241 30149 ft 370 kts 300°
2026-05-03 22:50 30.82946 -91.93422 30137 ft 369 kts 300°
2026-05-03 22:50 30.84069 -91.95692 30140 ft 369 kts 300°
2026-05-03 22:51 30.86628 -92.00870 30147 ft 369 kts 300°
2026-05-03 22:51 30.89188 -92.06059 30155 ft 369 kts 300°
2026-05-03 22:52 30.91745 -92.11248 30149 ft 370 kts 300°
2026-05-03 22:52 30.94305 -92.16450 30175 ft 370 kts 300°
2026-05-03 22:53 30.96873 -92.21674 30141 ft 372 kts 300°
2026-05-03 22:53 30.99448 -92.26920 30156 ft 373 kts 300°
2026-05-03 22:54 31.02025 -92.32179 30155 ft 374 kts 300°
2026-05-03 22:54 31.04612 -92.37464 30154 ft 375 kts 300°
2026-05-03 22:55 31.07197 -92.42753 30146 ft 376 kts 300°
2026-05-03 22:55 31.09788 -92.48060 30147 ft 376 kts 300°
2026-05-03 22:56 31.12373 -92.53364 30145 ft 376 kts 300°
2026-05-03 22:56 31.14953 -92.58664 30141 ft 375 kts 300°
2026-05-03 22:57 31.17508 -92.63920 30141 ft 374 kts 300°
2026-05-03 22:57 31.20072 -92.69203 30133 ft 372 kts 300°
2026-05-03 22:58 31.22624 -92.74466 30158 ft 374 kts 300°
2026-05-03 22:58 31.25203 -92.79794 30156 ft 378 kts 300°
2026-05-03 22:59 31.27797 -92.85161 30158 ft 380 kts 300°
2026-05-03 22:59 31.30399 -92.90551 30156 ft 380 kts 300°
2026-05-03 23:00 31.32973 -92.95891 30153 ft 378 kts 300°
2026-05-03 23:00 31.35528 -93.01199 30159 ft 373 kts 300°
2026-05-03 23:01 31.38077 -93.06502 30127 ft 374 kts 300°
2026-05-03 23:01 31.40630 -93.11819 30137 ft 375 kts 300°
2026-05-03 23:02 31.43178 -93.17135 30140 ft 374 kts 300°
2026-05-03 23:02 31.45721 -93.22447 30141 ft 373 kts 300°
2026-05-03 23:03 31.47828 -93.26857 30133 ft 372 kts 300°
2026-05-03 23:03 31.50775 -93.33029 30149 ft 373 kts 300°
2026-05-03 23:04 31.53303 -93.38334 30145 ft 373 kts 300°
2026-05-03 23:04 31.55403 -93.42746 30145 ft 373 kts 300°
2026-05-03 23:05 31.57933 -93.48067 30139 ft 373 kts 300°
2026-05-03 23:05 31.60450 -93.53388 30139 ft 373 kts 298°
2026-05-03 23:06 31.62163 -93.59136 30138 ft 375 kts 288°
2026-05-03 23:06 31.63586 -93.65048 30138 ft 376 kts 288°
2026-05-03 23:07 31.64313 -93.68049 30136 ft 376 kts 289°
2026-05-03 23:07 31.64583 -93.69150 30137 ft 376 kts 289°
2026-05-03 23:08 31.65177 -93.71559 30137 ft 375 kts 289°
2026-05-03 23:08 31.66649 -93.77435 30136 ft 375 kts 289°
2026-05-03 23:09 31.68114 -93.83307 30134 ft 373 kts 289°
2026-05-03 23:09 31.69575 -93.89157 30135 ft 373 kts 289°
2026-05-03 23:10 31.71030 -93.95000 30138 ft 372 kts 289°
2026-05-03 23:10 31.72481 -94.00830 30142 ft 372 kts 289°
2026-05-03 23:11 31.73923 -94.06622 30154 ft 372 kts 289°
2026-05-03 23:11 31.75372 -94.12474 30147 ft 374 kts 289°
2026-05-03 23:12 31.76823 -94.18346 30146 ft 374 kts 289°
2026-05-03 23:12 31.78269 -94.24226 30136 ft 374 kts 288°
2026-05-03 23:13 31.79714 -94.30111 30141 ft 374 kts 288°
2026-05-03 23:13 31.81158 -94.35988 30141 ft 374 kts 288°
2026-05-03 23:14 31.82601 -94.41873 30139 ft 374 kts 288°
2026-05-03 23:14 31.84031 -94.47719 30142 ft 374 kts 288°
2026-05-03 23:15 31.85463 -94.53588 30140 ft 373 kts 288°
2026-05-03 23:15 31.86890 -94.59444 30140 ft 372 kts 288°
2026-05-03 23:16 31.88310 -94.65290 30131 ft 370 kts 288°
2026-05-03 23:16 31.89727 -94.71106 30128 ft 369 kts 288°
2026-05-03 23:17 31.91134 -94.76915 30110 ft 368 kts 288°
2026-05-03 23:17 31.92526 -94.82675 30118 ft 368 kts 289°
2026-05-03 23:18 31.93921 -94.88479 30119 ft 369 kts 288°
2026-05-03 23:18 31.95319 -94.94293 30117 ft 369 kts 288°
2026-05-03 23:19 31.96712 -95.00109 30097 ft 369 kts 288°
2026-05-03 23:19 31.98103 -95.05921 30109 ft 369 kts 288°
2026-05-03 23:20 31.99500 -95.11765 30096 ft 370 kts 288°
2026-05-03 23:20 32.00895 -95.17601 30102 ft 370 kts 288°
2026-05-03 23:21 32.02286 -95.23452 30102 ft 371 kts 288°
2026-05-03 23:21 32.03675 -95.29308 30103 ft 371 kts 288°
2026-05-03 23:22 32.05739 -95.38023 30093 ft 366 kts 288°
2026-05-03 23:22 32.07107 -95.43811 30111 ft 367 kts 288°
2026-05-03 23:23 32.08477 -95.49619 30107 ft 367 kts 288°
2026-05-03 23:23 32.09840 -95.55415 30112 ft 367 kts 288°
2026-05-03 23:24 32.11202 -95.61218 30116 ft 367 kts 288°
2026-05-03 23:24 32.12561 -95.67020 30110 ft 366 kts 288°
2026-05-03 23:25 32.13225 -95.69866 30089 ft 352 kts 288°
2026-05-03 23:25 32.13859 -95.72587 30083 ft 337 kts 288°
2026-05-03 23:25 32.15092 -95.77869 29719 ft 330 kts 288°
2026-05-03 23:26 32.15701 -95.80485 29340 ft 331 kts 288°
2026-05-03 23:26 32.16304 -95.83080 28991 ft 326 kts 288°
2026-05-03 23:26 32.16901 -95.85650 28577 ft 323 kts 288°
2026-05-03 23:26 32.17491 -95.88192 28187 ft 320 kts 288°
2026-05-03 23:27 32.18077 -95.90716 27817 ft 318 kts 288°
2026-05-03 23:27 32.18670 -95.93272 27454 ft 331 kts 288°
2026-05-03 23:27 32.19303 -95.95979 26909 ft 356 kts 288°
2026-05-03 23:27 32.19986 -95.98894 26369 ft 374 kts 288°
2026-05-03 23:28 32.20673 -96.01861 25890 ft 374 kts 287°
2026-05-03 23:28 32.21354 -96.04833 25413 ft 375 kts 287°
2026-05-03 23:28 32.22035 -96.07802 24981 ft 374 kts 287°
2026-05-03 23:28 32.22716 -96.10765 24538 ft 374 kts 287°
2026-05-03 23:29 32.23397 -96.13731 24098 ft 373 kts 287°
2026-05-03 23:29 32.24076 -96.16686 23662 ft 373 kts 287°
2026-05-03 23:29 32.24753 -96.19637 23167 ft 371 kts 287°
2026-05-03 23:29 32.25425 -96.22570 22719 ft 370 kts 287°
2026-05-03 23:30 32.26097 -96.25505 22286 ft 370 kts 287°
2026-05-03 23:30 32.26761 -96.28404 21863 ft 370 kts 286°
2026-05-03 23:30 32.27505 -96.31307 21431 ft 369 kts 294°
2026-05-03 23:30 32.28820 -96.33895 20822 ft 371 kts 310°
2026-05-03 23:31 32.30634 -96.36057 20335 ft 369 kts 315°
2026-05-03 23:31 32.32497 -96.38150 20018 ft 364 kts 316°
2026-05-03 23:31 32.34297 -96.40167 19944 ft 350 kts 315°
2026-05-03 23:31 32.36033 -96.42129 19793 ft 340 kts 315°
2026-05-03 23:32 32.37725 -96.44057 19449 ft 337 kts 315°
2026-05-03 23:32 32.39408 -96.45988 18987 ft 338 kts 315°
2026-05-03 23:32 32.41100 -96.47933 18522 ft 339 kts 315°
2026-05-03 23:32 32.42789 -96.49880 18070 ft 339 kts 315°
2026-05-03 23:33 32.44475 -96.51827 17658 ft 337 kts 315°
2026-05-03 23:33 32.46152 -96.53752 17258 ft 335 kts 315°
2026-05-03 23:33 32.47799 -96.55647 16855 ft 334 kts 315°
2026-05-03 23:33 32.49457 -96.57559 16466 ft 332 kts 315°
2026-05-03 23:34 32.51118 -96.59467 16016 ft 332 kts 314°
2026-05-03 23:34 32.52776 -96.61366 15628 ft 331 kts 314°
2026-05-03 23:34 32.54421 -96.63250 15288 ft 328 kts 315°
2026-05-03 23:34 32.56069 -96.65139 14819 ft 330 kts 314°
2026-05-03 23:35 32.57724 -96.67026 14401 ft 330 kts 314°
2026-05-03 23:35 32.59384 -96.68895 13957 ft 330 kts 315°
2026-05-03 23:35 32.61060 -96.70779 13501 ft 331 kts 315°
2026-05-03 23:35 32.62722 -96.72648 13263 ft 324 kts 315°
2026-05-03 23:36 32.64338 -96.74467 13101 ft 316 kts 314°
2026-05-03 23:36 32.65906 -96.76238 12952 ft 307 kts 313°
2026-05-03 23:36 32.67431 -96.77963 12844 ft 298 kts 313°
2026-05-03 23:36 32.68895 -96.79620 12731 ft 290 kts 314°
2026-05-03 23:37 32.70332 -96.81251 12615 ft 282 kts 314°
2026-05-03 23:37 32.71725 -96.82841 12523 ft 273 kts 314°
2026-05-03 23:37 32.73077 -96.84381 12424 ft 265 kts 313°
2026-05-03 23:37 32.74388 -96.85870 12323 ft 257 kts 314°
2026-05-03 23:38 32.75671 -96.87327 12245 ft 254 kts 314°
2026-05-03 23:38 32.76944 -96.88774 12152 ft 252 kts 314°
2026-05-03 23:38 32.78202 -96.90208 12066 ft 249 kts 314°
2026-05-03 23:38 32.79645 -96.91352 11899 ft 256 kts 341°
2026-05-03 23:39 32.81425 -96.91528 11774 ft 258 kts 359°
2026-05-03 23:39 32.83235 -96.91510 11536 ft 262 kts 358°
2026-05-03 23:39 32.85074 -96.91488 11329 ft 266 kts 359°
2026-05-03 23:39 32.86921 -96.91467 11100 ft 265 kts 358°
2026-05-03 23:40 32.88758 -96.91449 10864 ft 263 kts 359°
2026-05-03 23:40 32.90575 -96.91432 10652 ft 260 kts 358°
2026-05-03 23:40 32.92378 -96.91419 10449 ft 258 kts 359°
2026-05-03 23:40 32.94157 -96.91405 10276 ft 252 kts 359°
2026-05-03 23:41 32.95904 -96.91394 10030 ft 249 kts 358°
2026-05-03 23:41 32.97634 -96.91381 9806 ft 248 kts 358°
2026-05-03 23:41 32.99334 -96.91369 9562 ft 248 kts 358°
2026-05-03 23:41 33.01073 -96.91358 9376 ft 251 kts 359°
2026-05-03 23:42 33.02826 -96.91348 9168 ft 253 kts 358°
2026-05-03 23:42 33.04606 -96.91338 8953 ft 257 kts 358°
2026-05-03 23:42 33.06398 -96.91328 8706 ft 258 kts 358°
2026-05-03 23:42 33.08194 -96.91315 8481 ft 259 kts 359°
2026-05-03 23:43 33.09989 -96.91303 8267 ft 257 kts 358°
2026-05-03 23:43 33.11762 -96.91291 8027 ft 253 kts 358°
2026-05-03 23:43 33.13523 -96.91279 7672 ft 252 kts 358°
2026-05-03 23:43 33.15271 -96.91268 7307 ft 252 kts 358°
2026-05-03 23:44 33.17019 -96.91257 6992 ft 250 kts 358°
2026-05-03 23:44 33.18748 -96.91246 6692 ft 247 kts 358°
2026-05-03 23:44 33.20470 -96.91256 6288 ft 249 kts 355°
2026-05-03 23:44 33.22196 -96.91351 6015 ft 247 kts 355°
2026-05-03 23:45 33.23921 -96.91526 5986 ft 248 kts 342°
2026-05-03 23:45 33.25313 -96.92564 5985 ft 232 kts 301°
2026-05-03 23:45 33.25872 -96.94309 6002 ft 225 kts 272°
2026-05-03 23:45 33.25781 -96.96117 5983 ft 217 kts 250°
2026-05-03 23:46 33.25137 -96.97703 5963 ft 205 kts 229°
2026-05-03 23:46 33.24132 -96.98813 6001 ft 199 kts 214°
2026-05-03 23:46 33.23006 -96.99769 5980 ft 198 kts 214°
2026-05-03 23:46 33.21884 -97.00723 5989 ft 198 kts 214°
2026-05-03 23:47 33.20758 -97.01679 5980 ft 199 kts 214°
2026-05-03 23:47 33.19531 -97.02401 5971 ft 200 kts 188°
2026-05-03 23:47 33.18130 -97.02428 5997 ft 203 kts 182°
2026-05-03 23:47 33.16683 -97.02443 5525 ft 217 kts 182°
2026-05-03 23:48 33.15190 -97.02457 5315 ft 211 kts 182°
2026-05-03 23:48 33.13759 -97.02470 5161 ft 200 kts 182°
2026-05-03 23:48 33.12384 -97.02480 5047 ft 196 kts 182°
2026-05-03 23:48 33.11026 -97.02493 4831 ft 200 kts 182°
2026-05-03 23:49 33.09541 -97.02505 4113 ft 220 kts 182°
2026-05-03 23:49 33.08019 -97.02511 3793 ft 218 kts 182°
2026-05-03 23:49 33.06518 -97.02518 3499 ft 213 kts 182°
2026-05-03 23:49 33.05546 -97.02522 3320 ft 209 kts 182°
2026-05-03 23:50 33.04115 -97.02529 3026 ft 203 kts 181°
2026-05-03 23:50 33.02725 -97.02536 2760 ft 197 kts 181°
2026-05-03 23:50 33.01379 -97.02543 2501 ft 189 kts 182°
2026-05-03 23:50 33.00085 -97.02550 2256 ft 183 kts 181°
2026-05-03 23:51 32.98834 -97.02556 2011 ft 177 kts 182°
2026-05-03 23:51 32.97633 -97.02561 1786 ft 170 kts 181°
2026-05-03 23:51 32.96462 -97.02567 1562 ft 165 kts 180°
2026-05-03 23:51 32.95350 -97.02575 1379 ft 152 kts 179°
2026-05-03 23:52 32.94296 -97.02580 1150 ft 150 kts 182°
2026-05-03 23:52 32.93272 -97.02583 927 ft 149 kts 181°
2026-05-03 23:52 32.92261 -97.02587 745 ft 140 kts 182°
2026-05-03 23:52 32.91321 -97.02593 584 ft 127 kts 183°
2026-05-03 23:53 32.90774 -97.02604 571 ft 108 kts 179°
2026-05-03 23:53 32.90033 -97.02612 575 ft 52 kts 187°
2026-05-03 23:53 32.89861 -97.02726 568 ft 23 kts 208°
2026-05-03 23:53 32.89764 -97.02796 569 ft 12 kts 202°
2026-05-03 23:54 32.89700 -97.02810 570 ft 9 kts 181°
2026-05-03 23:54 32.89581 -97.02805 571 ft 20 kts 179°
2026-05-03 23:54 32.89455 -97.02806 571 ft 12 kts 181°
2026-05-03 23:54 32.89405 -97.02831 577 ft 5 kts 234°
2026-05-03 23:55 32.89396 -97.02863 572 ft 6 kts 260°
2026-05-03 23:55 32.89394 -97.02944 574 ft 10 kts 270°
2026-05-03 23:55 32.89396 -97.03025 575 ft 15 kts 271°
2026-05-03 23:55 32.89417 -97.03170 578 ft 16 kts 316°
2026-05-03 23:56 32.89503 -97.03195 579 ft 11 kts 356°
2026-05-03 23:56 32.89572 -97.03199 579 ft 10 kts 358°
2026-05-03 23:56 32.89622 -97.03205 580 ft 0 kts 306°
2026-05-03 23:56 32.89620 -97.03242 581 ft 9 kts 265°
2026-05-03 23:57 32.89618 -97.03320 585 ft 11 kts 269°
2026-05-03 23:57 32.89657 -97.03377 586 ft 13 kts 339°
2026-05-03 23:57 32.89767 -97.03394 586 ft 13 kts 354°
2026-05-03 23:57 32.89819 -97.03417 586 ft 4 kts 322°
2026-05-03 23:58 32.89831 -97.03451 586 ft 2 kts 264°
2026-05-03 23:58 32.89826 -97.03469 586 ft 2 kts 246°
2026-05-03 23:58 32.89815 -97.03491 586 ft 2 kts 235°
2026-05-03 23:58 32.89808 -97.03502 586 ft 2 kts 235°
2026-05-03 23:59 32.89800 -97.03516 586 ft 0 kts 235°